ISS (ZARYA) 1 25544U 98067A 12034.86863426 -.00001965 00000-0 -18124-4 0 9424 2 25544 51.6423 75.8121 0020339 2.5479 345.5829 15.58658818757067 TIANGONG 1 1 37820U 11053A 12034.75971069 .00033570 00000-0 26648-3 0 4367 2 37820 42.7841 146.7510 0009767 356.3169 132.8780 15.70553340 20020 SOYUZ-TMA 22 1 37877U 11067A 12033.84134259 .00011490 00000-0 15185-3 0 766 2 37877 51.6422 80.9621 0020203 359.2243 340.7834 15.58644781756900 SOYUZ-TMA 03M 1 38036U 11078A 12033.84134259 .00011490 00000-0 15185-3 0 474 2 38036 51.6422 80.9621 0020203 359.2243 340.7834 15.58644781756908 PROGRESS-M 14M 1 38073U 12004A 12033.84134259 .00011490 00000-0 15185-3 0 206 2 38073 51.6422 80.9621 0020203 359.2243 340.7834 15.58644781756909